Regional Weather Roundup
Issued by NWS

Home | Current Version | Previous Version | Text Only | Print | Product List | Glossary Off
Versions: 1 2 3 4 5 6 7 8 9 10 11 12 13 14 15 16 17 18 19 20 21 22 23 24 25 26 27 28 29 30 31 32 33 34 35 36 37 38 39 40 41 42 43 44 45 46 47 48 49 50

000
ASUS43 KDTX 290910
RWRMI
MICHIGAN HOURLY REGIONAL WEATHER ROUNDUP
NATIONAL WEATHER SERVICE DETROIT/PONTIAC MI
500 AM EDT WED MAR 29 2017

NOTE: "FAIR" INDICATES FEW OR NO CLOUDS BELOW 12,000 FEET WITH NO
SIGNIFICANT WEATHER AND/OR OBSTRUCTION TO VISIBILITY.

MIZ047>049-052>055-059>063-066>070-074>076-081>083-291000-
SOUTHEAST LOWER MICHIGAN

CITY           SKY/WX    TMP DP  RH WIND       PRES   REMARKS
ADRIAN         CLEAR     32  30  92 NE5       30.24R WCI  27
ALMA           CLEAR     28  28 100 N5        30.25F FOG     WCI  23
ANN ARBOR      CLEAR     30  29  96 CALM      30.22S
BAD AXE        CLEAR     25  24  96 CALM      30.24S
CARO           CLEAR     25  24  97 CALM      30.25R
DETROIT CITY   CLEAR     34  30  85 N5        30.22F WCI  30
DETROIT        CLEAR     35  30  82 CALM      30.24R
FLINT          CLEAR     29  27  92 CALM      30.24S
GROSSE ILE     CLEAR     33  31  90 CALM      30.22R
HILLSDALE      CLEAR     32  30  93 NE3       30.21R
HOWELL         CLEAR     31  29  94 CALM      30.23R

CITY           SKY/WX    TMP DP  RH WIND       PRES   REMARKS
JACKSON        MIX PCPN  32  29  88 CALM      30.23R
LAMBERTVILLE   CLEAR     35  32  90 CALM      30.23R
LANSING        CLEAR     33  30  88 CALM      30.24S
LAPEER         FAIR      28  28 100 CALM      30.24R
MASON          CLEAR     32  32  99 CALM      30.23S
MONROE         CLEAR     33  32  94 N5        30.22S WCI  29
MT. CLEMENS    CLEAR     29  29  99 N6        30.21F WCI  23
PONTIAC        CLEAR     32  26  78 N3        30.21S
PORT HOPE        N/A     32  29  88 W3        30.22F
PORT HURON     CLEAR     28  27  93 CALM      30.24R
TRI CITIES     CLEAR     31  30  96 SW5       30.25S WCI  26
MIDLAND        FAIR      28  27  96 CALM      30.25S
TROY           CLEAR     35  30  82 N3        30.24S
SAGINAW HB     CLEAR     30  28  93 CALM      30.25S
$$
MIZ043>046-050>051-056>058-064>065-071>073-077>080-291000-
SOUTHWEST LOWER MICHIGAN

CITY           SKY/WX    TMP DP  RH WIND       PRES   REMARKS
BATTLE CREEK   CLEAR     33  32  96 E3        30.23S
BENTON HARBOR  CLEAR     30  27  88 CALM      30.22F
BIG RAPIDS     CLEAR     30  29  96 CALM      30.24F
COLDWATER      CLEAR     32  32 100 E3        30.22S
FREMONT        FAIR      35  35  99 E3        30.23S
HOLLAND        CLEAR     30  28  92 CALM      30.23F FOG
GRAND RAPIDS   CLEAR     33  32  96 E3        30.24S
IONIA          FAIR      32  32  99 NE5       30.24S WCI  28
KALAMAZOO      FOG       32  29  88 CALM      30.23S VSB 1/4
LUDINGTON      CLEAR     30  30 100 N3        30.25R
MARSHALL       CLEAR     32  32  99 CALM      30.23S
MOUNT PLEASANT CLEAR     30  29  96 CALM      30.24F FOG
MUSKEGON       CLEAR     30  27  88 CALM      30.25R
SOUTH HAVEN    CLEAR     28  27  99 CALM      30.23F
$$
MIZ016>042-291000-
NORTHERN LOWER MICHIGAN

CITY           SKY/WX    TMP DP  RH WIND       PRES   REMARKS
ALPENA         CLEAR     32  29  88 NW7       30.26S WCI  26
BEAVER ISLAND  FOG       30  30 100 N5        30.30R VSB 3/4 WCI  25
BELLAIRE       CLEAR     27  26  95 CALM      30.28S
CADILLAC       CLEAR     26  24  95 CALM      30.23S
CHARLEVOIX     CLEAR     28  28 100 CALM      30.31S
FRANKFORT      CLEAR     29  27  92 CALM      30.27S
GAYLORD        CLEAR     30  24  78 CALM      30.24S
GRAYLING       CLEAR     25  23  93 CALM      30.26S
HARBOR SPRINGS CLEAR     28  28  99 CALM      30.27S
HOUGHTON LAKE  FOG       28  25  88 CALM      30.25R VSB 3/4
MANISTEE       CLEAR     27  26  96 CALM      30.27R
OSCODA         CLEAR     27  24  89 W3        30.24R
PELLSTON       CLEAR     26  23  88 N5        30.29R WCI  20
ROGERS CITY    CLEAR     34  31  88 NW6       30.28R WCI  29
TRAVERSE CITY  FOG       30  28  92 CALM      30.27S VSB 1/2
$$
MIZ007>008-015-291000-
EASTERN UPPER MICHIGAN

CITY           SKY/WX    TMP DP  RH WIND       PRES   REMARKS
KINROSS        CLOUDY    28  27  93 N6        30.29S FOG     WCI  22
MACKINAC ISLAN CLOUDY    29  29 100 N7        30.28R FOG     WCI  22
NEWBERRY       PTCLDY    28  27  96 N3        30.30R
S. S. MARIE    CLEAR     31  26  82 N3        30.29S
MUNISING         N/A     28  27  96 CALM      30.32S
$$
MIZ004>006-011>014-085-291000-
CENTRAL UPPER MICHIGAN

CITY           SKY/WX    TMP DP  RH WIND       PRES   REMARKS
MANISTIQUE     CLEAR     28  28  98 N8        30.29F WCI  20
ESCANABA       CLEAR     31  30  96 N7        30.30S WCI  24
MENOMINEE        N/A    N/A N/A N/A MISG        N/A
SAWYER-GWINN   MOCLDY    30  29  96 NE12      30.30R WCI  20
$$
MIZ001>003-009>011-084-291000-
WESTERN UPPER MICHIGAN

CITY           SKY/WX    TMP DP  RH WIND       PRES   REMARKS
IRON MOUNTAIN  CLEAR     26  21  81 CALM      30.26F
HOUGHTON       CLEAR     32  26  78 E9        30.31F WCI  24
COPPER HARBOR    N/A     31  26  82 S3        30.35S
IRONWOOD       CLEAR     32  27  81 E7        30.27R WCI  26
$$

ABBREVIATIONS USED IN REMARKS
   TC - TEMPERATURE IN CELSIUS
  WCI - WIND CHILL INDEX
   HX - HEAT INDEX
  VSB - VISIBILITY




USA.gov is the U.S. government's official web portal to all federal, state and local government web resources and services.